Flag for U.S.A. Weather past 2 weeks in Hollywood, California, U.S.A.

Now
58 °F

Passing clouds.


Feels Like: 58 °F
Forecast: 59 / 75 °F
Wind: 3 mph from North

Location: Van Nuys Airport

Current Time: Oct 25, 2014 at 9:05:56 AM

Latest Report: Oct 25, 2014 at 7:51 AM


Visibility: 10 mi

Pressure: 30.01 "Hg

Humidity: 58%

Dew point: 43 °F

Location of HollywoodLocation

Historic Weather in Hollywood — Graph

°F

Hollywood temperature yesterday

Maximum temperature yesterday: 89 °F (at 1:51 PM)
Minimum temperature yesterday: 57 °F (at 5:51 AM)
Average temperature yesterday: 71 °F

Past Weeks' High & Low Weather Summary

 TemperatureHumidityPressure
High90 °F (Oct 13, 12:51 PM)97% (Oct 13, 8:51 AM)30.02 "Hg (Oct 13, 8:51 AM)
Low55 °F (Oct 21, 6:51 AM)8% (Oct 24, 1:51 PM)29.80 "Hg (Oct 18, 4:51 PM)
Average69 °F60%29.91 "Hg
* Reported Oct 10 7:51 AM — Oct 25 7:51 AM, Hollywood, Weather by CustomWeather, © 2014

Note: Actual official high and low records may vary slightly from our data, if they occured in-between our weather recording intervals... More about our weather records

Advertising

Hollywood weather history for previous 24 hours

 ConditionsComfort  
Time TempWeatherWind HumidityBarometerVisibility
7:51 AM
Oct 25
58 °FPassing clouds.3 mph58%30.01 "Hg10 mi
6:51 AM57 °FPassing clouds.No wind60%30.00 "Hg10 mi
5:51 AM57 °FClear.3 mph60%29.98 "Hg10 mi
4:51 AM58 °FClear.No wind51%29.97 "Hg10 mi
3:51 AM58 °FClear.No wind56%29.97 "Hg10 mi
2:51 AM61 °FClear.3 mph56%29.98 "Hg10 mi
1:51 AM61 °FClear.No wind50%30.00 "Hg10 mi
12:51 AM62 °FClear.No wind48%30.00 "Hg10 mi
11:51 PM
Oct 24
65 °FClear.No wind42%29.99 "Hg10 mi
10:51 PM66 °FClear.3 mph40%29.98 "Hg10 mi
9:51 PM70 °FClear.No wind35%29.96 "Hg10 mi
8:51 PM72 °FClear.No wind31%29.95 "Hg10 mi
7:51 PM75 °FClear.3 mph26%29.94 "Hg10 mi
6:51 PM77 °FSunny.6 mph24%29.92 "Hg10 mi
5:51 PM81 °FSunny.8 mph16%29.91 "Hg10 mi
4:51 PM86 °FSunny.9 mph10%29.91 "Hg10 mi
3:51 PM87 °FSunny.12 mph8%29.91 "Hg10 mi
2:51 PM89 °FSunny.9 mph8%29.91 "Hg10 mi
1:51 PM89 °FSunny.10 mph8%29.92 "Hg10 mi
12:51 PM87 °FSunny.8 mph12%29.95 "Hg10 mi
11:51 AM85 °FSunny.7 mph18%29.97 "Hg10 mi
10:51 AM80 °FSunny.No wind23%29.98 "Hg10 mi
9:51 AM72 °FSunny.3 mph33%29.99 "Hg10 mi
Weather by CustomWeather, © 2014

See weather overviewHow to use our weather pages